Time,TemperatureF,DewpointF,PressureIn,WindDirection,WindDirectionDegrees,WindSpeedMPH,WindSpeedGustMPH,Humidity,HourlyPrecipIn,Conditions,Clouds,dailyrainin,SoftwareType,DateUTC
2018-01-17 00:02:00,5.5,2.2,30.69,West,275,1.0,4.0,86,0.00,,,0.00,Wunderground v.1.15,2018-01-17 05:02:00,
2018-01-17 00:07:00,5.5,2.2,30.69,West,270,1.0,4.0,86,0.00,,,0.00,Wunderground v.1.15,2018-01-17 05:07:00,
2018-01-17 00:12:00,5.4,2.4,30.69,West,274,1.0,4.0,87,0.00,,,0.00,Wunderground v.1.15,2018-01-17 05:12:00,
2018-01-17 00:22:00,5.5,2.5,30.68,West,274,2.0,4.0,87,0.00,,,0.00,Wunderground v.1.15,2018-01-17 05:22:00,
2018-01-17 00:27:00,5.6,2.6,30.68,West,274,1.0,4.0,87,0.00,,,0.00,Wunderground v.1.15,2018-01-17 05:27:00,
2018-01-17 00:32:00,5.6,2.6,30.68,West,274,2.0,9.0,87,0.00,,,0.00,Wunderground v.1.15,2018-01-17 05:32:00,
2018-01-17 00:38:00,5.6,2.6,30.68,West,275,2.0,9.0,87,0.00,,,0.00,Wunderground v.1.15,2018-01-17 05:38:00,
2018-01-17 00:44:00,5.6,2.6,30.68,West,275,1.0,9.0,87,0.00,,,0.00,Wunderground v.1.15,2018-01-17 05:44:00,
2018-01-17 00:49:00,5.7,2.7,30.68,West,274,1.0,9.0,87,0.00,,,0.00,Wunderground v.1.15,2018-01-17 05:49:00,
2018-01-17 00:54:00,5.7,2.9,30.68,West,274,1.0,9.0,88,0.00,,,0.00,Wunderground v.1.15,2018-01-17 05:54:00,
2018-01-17 01:00:00,5.7,2.9,30.68,West,274,1.0,2.0,88,0.00,,,0.00,Wunderground v.1.15,2018-01-17 06:00:00,
2018-01-17 01:08:00,5.8,3.0,30.68,West,274,1.0,2.0,88,0.00,,,0.00,Wunderground v.1.15,2018-01-17 06:08:00,
2018-01-17 01:13:00,5.8,3.0,30.68,West,274,1.0,1.0,88,0.00,,,0.00,Wunderground v.1.15,2018-01-17 06:13:00,
2018-01-17 01:19:00,5.7,2.9,30.68,West,274,1.0,2.0,88,0.00,,,0.00,Wunderground v.1.15,2018-01-17 06:19:00,
2018-01-17 01:24:00,5.7,2.9,30.68,West,274,0.0,2.0,88,0.00,,,0.00,Wunderground v.1.15,2018-01-17 06:24:00,
2018-01-17 01:30:00,5.6,2.8,30.67,West,274,0.0,5.0,88,0.00,,,0.00,Wunderground v.1.15,2018-01-17 06:30:00,
2018-01-17 01:39:00,5.5,2.7,30.67,West,274,1.0,5.0,88,0.00,,,0.00,Wunderground v.1.15,2018-01-17 06:39:00,
2018-01-17 01:44:00,5.5,2.7,30.67,West,274,1.0,5.0,88,0.00,,,0.00,Wunderground v.1.15,2018-01-17 06:44:00,
2018-01-17 01:49:00,5.4,2.6,30.67,WNW,292,1.0,5.0,88,0.00,,,0.00,Wunderground v.1.15,2018-01-17 06:49:00,
2018-01-17 01:55:00,5.3,2.5,30.67,WNW,292,1.0,5.0,88,0.00,,,0.00,Wunderground v.1.15,2018-01-17 06:55:00,
2018-01-17 02:00:00,5.2,2.7,30.67,WNW,292,0.0,3.0,89,0.00,,,0.00,Wunderground v.1.15,2018-01-17 07:00:00,
2018-01-17 02:05:00,5.2,2.7,30.67,WNW,292,1.0,3.0,89,0.00,,,0.00,Wunderground v.1.15,2018-01-17 07:05:00,
2018-01-17 02:11:00,5.2,2.7,30.67,West,259,1.0,2.0,89,0.00,,,0.00,Wunderground v.1.15,2018-01-17 07:11:00,
2018-01-17 02:17:00,5.3,2.8,30.67,WSW,248,1.0,2.0,89,0.00,,,0.00,Wunderground v.1.15,2018-01-17 07:17:00,
2018-01-17 02:23:00,5.3,2.8,30.67,West,281,1.0,1.0,89,0.00,,,0.00,Wunderground v.1.15,2018-01-17 07:23:00,
2018-01-17 02:31:00,5.4,3.1,30.67,West,281,1.0,5.0,90,0.00,,,0.00,Wunderground v.1.15,2018-01-17 07:31:00,
2018-01-17 02:36:00,5.6,3.3,30.67,West,281,1.0,5.0,90,0.00,,,0.00,Wunderground v.1.15,2018-01-17 07:36:00,
2018-01-17 02:42:00,5.7,3.2,30.67,West,281,1.0,5.0,89,0.00,,,0.00,Wunderground v.1.15,2018-01-17 07:42:00,
2018-01-17 02:53:00,5.8,3.3,30.67,West,281,1.0,5.0,89,0.00,,,0.00,Wunderground v.1.15,2018-01-17 07:53:00,
2018-01-17 02:59:00,5.8,3.3,30.67,West,281,1.0,1.0,89,0.00,,,0.00,Wunderground v.1.15,2018-01-17 07:59:00,